DELTA 1 DEB

Satellite information

Favourite Embed

Satellite Type and Status

DEBRISIN ORBIT

Key statistics

Satellite DELTA 1 DEB at a glance.

Uptime

21511

Days in orbit

Revolutions

≈ 12.8

Per day

Orbit

SSO

Sun Synchronous Orbit

Inclination

101.9

Latest

Satellite identification and parameters

Extended collection of information and parameters for DELTA 1 DEB.

Object identification

Identified? True

Debris? True

Object name: DELTA 1 DEB

International designator: 1967-006D

Object number (NORAD): 2707

Object ID (CCSDS): 2707

Country: UNITED STATES OF AMERICA (US)

Current information (Y/N): Y

RCS size: SMALL

Orbital parameters

Period: 112.553 minutes

Inclination: 101.8685 deg

SMA: 7722.03 km

Apoapsis: 1459.156 km

Periapsis: 1228.634 km

RAAN: 305.0534 deg

Eccentricy: 0.01492628

Argument of periapsis: 17.8661 deg

Mean anomaly: 58.3086 deg

Mean motion: 12.79397692 rev/day

Mean motion (dot): -0.00000012 rev/day2

B* drag term: 0.00015602575 1/REarth

Two-line elements (TLE)

Creation date: Dec. 15, 2025, 4:20 a.m.

Reference frame: TEME

Reference center: EARTH

Epoch: Dec. 14, 2025, 7:16 p.m. UTC

TLE line 0: 0 DELTA 1 DEB

TLE line 1: 1 02707U 67006D 25348.80305781 -.00000012 00000-0 15603-3 0 9991

TLE line 2: 2 02707 101.8685 305.0534 0149263 17.8661 58.3086 12.79397692748779

Live tracking on map

Real-time ground track for satellite DELTA 1 DEB.

In-orbit conjunctions

A list of the most updated potential collisions computed for object DELTA 1 DEB.

Target Orbit TCA Probability of collision Miss distance Type
COSMOS 2201 LEO 2025-03-02 19:52:03 0.0004731766 72.0 (m) PAYLOAD

Associated space launch

The ESSA series was the second generation of US meterological satellites after the TIROS (Television & Infra-Red Observation Satellite) series. They were also called OT (Operational TIROS), TOS (TIROS Operational Satellite).

DELTA 1 DEB was lifted into orbit during the mission ‘Thor Delta E | ESSA 4’, on board a Thor Delta E space rocket.

The launch took place on Jan. 26, 1967, 5:31 p.m. from Space Launch Complex 2E.

For more information about the launch, click the button.

Launch to space Thor Delta E | ESSA 4
Thor Delta E | ESSA 4

Agency: N/A

Status: Launch Successful

Launch date: Jan. 26, 1967, 5:31 p.m. UTC

Rocket: Thor Delta E

Launch pad: Space Launch Complex 2E

Location: Vandenberg SFB, CA, USA

...

Latest news about this satellite

There are no fresh news available about this satellite. Check back as we update our databases every day.


Newsletter sign-up

Weekly statistics, charts and insights to help you stay on top of the space industry.